STARLINK-1778 (46683 NORAD) Tracking and Keplerian Element Data

This shows tracking and keplerian element data for the satellite.

Feedback or suggestion? Click here.




ElementValue
Catalog46683
NameSTARLINK-1778
Epoch Orbit778
Epoch Day339.16667824
Epoch Year2020
RAAN242.8621
Inclination53.0479
Eccentricity0.0001265
Argument of Perigee84.6672
Mean Anonmoly1.4355
Mean Motion15.28188536
Decay Rate-0.00935517
L11 46683U 20073P 20339.16667824 -.00935517 00000-0 -36257-1 0 9992
L22 46683 53.0479 242.8621 0001265 84.6672 1.4355 15.28188536 7786

Live tracking and technical data element details for STARLINK-1778 (NORAD 46683). STARLINK-1778 can be tracked NOW for your location showing map with azimuth and elevation plus other details from your city location.

Track the satellite on the map from your city or location and see movement details for azimuth, elevation, latitude, longitude, range, height, and movement on the map or in text.







IsCatalogInMostPopularTable: catalog: 46683, numindb: 8
Update: records affected: 1



GetName: 46683 STARLINK-1778

Hit Count: updated at: Sun, 06 Dec 2020 00:30:08 GMT